Location: Bottenau
(48.5138°N, 8.0462°E)
Time: 20:38:53
(UTC+00:00)

Cosmos 1763 Rocket - Pass Details

Date: 18 April 2021
Orbit: 733 x 779 km, 74.0° (Epoch: 17 May)

Event Time Altitude Azimuth Distance (km) Brightness Sun altitude
Rises 21:55:55 0° 334° (NNW) 3,180 8.0 -27.0°
Reaches altitude 10° 21:58:18 10° 332° (NNW) 2,249 6.9 -27.2°
Enters shadow 22:02:58 63° 275° (W) 823 3.6 -27.5°
